Wind_Speed
25 28 29 31 31 35 38 20 5 15 20 3 3 3 8 6 5 3 4 4 6 5 2 4 5 5 3 1 0 1 2 0 5 8 2 2 1 2 4 6 4 6 7 9
25 26 27 28 28 29 31 18 8 9 15 2 5 9 6 4 4 3 4 3 4 4 3 5 6 3 4 2 1 2 2 1 4 5 3 2 3 4 5 4 4 10 8 4
27 28 24 25 26 26 22 9 4 5 8 5 6 7 7 5 5 4 3 4 3 4 3 3 4 5 3 2 2 2 1 5 8 11 12 10 13 15 10 9 7 14 14 16
27 27 24 24 23 24 19 2 3 2 4 5 10 4 7 11 8 2 2 2 2 2 3 4 5 3 9 9 7 4 3 7 10 12 15 14 15 16 18 16 16 14 18 18
29 28 26 25 24 22 20 5 4 5 8 7 5 4 4 11 12 4 8 6 9 4 5 8 13 13 5 6 2 1 3 5 3 12 13 14 15 17 15 17 18 17 19 20
30 29 28 27 23 20 22 16 17 10 7 6 4 6 6 9 11 7 11 9 8 10 12 14 14 16 20 15 8 5 4 3 2 9 7 7 9 13 8 4 6 7 7 4
31 29 29 29 27 23 26 26 20 8 6 9 9 10 12 15 15 15 17 15 7 4 14 18 19 21 23 20 18 15 6 3 3 6 5 4 3 1 3 7 8 8 6 6
31 30 27 28 28 27 25 26 23 8 4 13 12 15 12 14 14 13 18 20 13 17 6 3 6 3 3 4 7 11 11 5 3 3 4 7 9 2 2 3 4 2 8 8
27 26 21 22 23 24 23 24 25 19 5 9 14 4 11 9 12 4 5 7 11 6 3 3 3 3 2 1 3 1 5 6 5 3 5 4 1 2 1 1 4 2 5 10
27 26 26 24 24 23 22 23 24 22 7 6 11 6 7 5 2 3 4 5 5 7 3 3 3 4 1 2 1 3 4 4 11 10 5 6 2 1 1 5 2 2 2 4
29 28 27 26 24 22 21 23 22 23 11 8 14 17 10 6 6 4 2 2 2 3 4 3 2 3 1 2 1 2 3 3 4 2 4 5 2 3 3 3 2 1 1 2
30 29 27 25 22 20 18 20 18 19 15 9 12 21 20 20 20 14 10 3 5 7 3 3 1 3 3 2 5 2 4 6 3 6 3 3 2 1 1 4 4 2 2 4
30 27 26 23 22 19 15 16 13 12 14 10 9 9 5 11 18 22 7 6 9 7 7 4 2 5 2 4 5 4 4 3 3 2 4 2 5 6 2 2 3 4 4 4
27 25 24 20 19 15 12 14 13 11 5 3 5 8 10 13 13 15 22 26 15 9 9 6 3 3 6 3 2 5 6 2 6 7 1 4 4 2 2 4 2 4 4 5
26 24 21 18 16 12 11 13 14 11 7 3 4 7 10 11 12 13 16 16 15 7 5 4 4 2 2 2 2 8 5 4 4 4 4 0 1 2 5 3 2 3 5 6
24 21 18 16 11 7 7 3 3 2 7 4 2 3 4 6 5 5 7 9 9 8 4 2 3 1 2 3 3 1 2 1 2 2 3 2 4 3 2 1 3 5 6 7
22 18 13 12 6 4 3 3 6 9 6 2 3 2 2 4 4 2 3 1 1 2 1 1 1 1 2 1 3 2 4 4 2 1 1 0 1 2 2 4 6 7 8 9
17 13 10 7 4 4 4 6 9 4 5 2 1 2 1 4 2 1 3 2 2 2 2 1 2 1 1 3 5 4 6 5 3 2 2 3 3 4 5 6 7 8 10 11
12 4 9 5 1 1 1 4 5 11 5 1 1 2 2 4 2 2 2 2 1 2 0 1 2 1 4 4 3 4 9 5 3 4 2 4 5 6 7 8 9 9 11 11
10 9 4 3 3 3 1 2 1 1 2 1 0 2 2 4 3 1 1 2 1 0 1 2 2 3 8 11 11 8 3 7 7 5 4 7 8 9 9 9 9 9 9 8
10 5 3 6 4 1 2 2 3 4 2 1 1 1 2 4 2 1 2 1 1 1 1 2 1 2 2 6 5 1 4 6 9 8 5 4 6 10 11 12 11 10 9 8
6 6 11 5 2 2 2 1 1 1 1 1 2 1 1 2 1 1 2 0 0 1 1 1 2 1 5 8 7 6 7 6 10 9 7 6 6 9 11 11 11 10 9 8
10 3 3 2 3 4 1 3 1 2 2 2 1 1 1 1 2 2 1 1 1 1 1 2 2 3 7 11 10 7 5 5 7 8 8 8 8 10 11 11 11 11 10 9
3 2 3 2 2 2 2 2 1 1 2 2 2 1 2 1 1 1 1 1 1 1 2 1 1 4 8 11 12 10 6 6 9 9 9 9 10 11 11 11 11 10 9 9
3 2 1 2 3 3 2 3 2 2 1 2 1 2 1 1 1 1 1 1 2 3 1 1 3 6 9 11 13 12 10 8 10 12 11 11 12 12 11 11 11 10 10 9
2 2 2 0 2 1 1 2 4 3 3 1 1 1 1 0 0 1 3 2 3 1 1 2 6 9 10 12 13 14 14 12 11 13 14 14 15 14 12 12 11 11 10 9
1 2 1 2 2 2 1 1 2 6 3 1 2 1 2 2 0 2 3 3 1 1 3 4 9 13 15 15 16 16 17 16 14 14 16 16 16 16 15 14 12 11 10 9
Wind_Direction
333 335 335 339 339 338 348 352 316 332 355 331 33 6 327 323 318 331 300 283 272 281 8 286 258 261 28 130 68 117 67 302 272 284 61 48 0 294 278 249 240 241 272 274
331 325 327 333 336 334 345 336 290 352 356 31 8 338 309 286 306 318 317 291 17 12 320 292 260 310 131 162 36 92 151 205 287 249 174 151 212 177 232 246 242 266 288 278
324 325 325 325 328 322 331 337 311 336 47 76 5 339 304 315 319 288 303 292 302 334 299 294 322 312 360 302 324 322 177 216 235 263 285 303 290 289 248 274 273 277 265 281
320 320 318 316 318 310 306 252 237 234 304 319 322 307 285 299 308 273 287 268 326 325 288 304 276 300 314 285 293 261 236 258 258 262 277 278 269 266 273 268 256 259 275 282
318 317 317 309 308 311 267 236 235 208 258 270 236 280 258 290 297 263 285 274 301 219 251 262 294 297 264 267 33 292 233 258 236 275 277 270 267 263 264 263 266 268 265 270
311 308 306 305 305 306 280 249 239 226 203 196 219 251 253 267 285 261 269 271 259 253 272 285 268 270 260 256 258 263 248 241 243 275 312 304 269 250 236 205 219 241 258 322
310 309 306 301 299 296 290 280 252 212 225 211 219 228 258 266 274 271 276 265 242 246 290 295 281 263 260 256 250 234 249 208 235 280 295 241 57 217 270 265 263 223 245 160
313 312 309 307 300 295 291 288 260 239 250 219 229 239 257 270 275 276 275 263 258 280 283 266 298 265 221 209 224 226 221 227 243 253 251 309 296 149 175 236 295 230 224 164
316 312 313 313 303 297 293 283 290 252 247 208 242 215 247 264 283 285 241 255 252 241 246 251 267 282 326 245 146 73 188 219 223 176 260 265 293 114 142 231 247 93 176 165
312 312 310 310 309 306 301 290 290 275 256 202 223 215 259 226 203 236 255 217 206 202 223 246 254 250 307 272 240 155 159 205 231 247 265 272 2 10 127 228 57 29 156 153
308 307 308 308 305 303 304 297 292 267 261 240 250 258 236 209 215 250 247 214 167 175 204 234 216 243 189 246 261 198 213 244 210 180 224 259 49 147 234 14 358 50 155 190
306 304 303 304 305 303 305 301 305 291 253 259 254 280 275 250 263 253 207 258 171 198 206 226 177 230 205 244 276 184 246 217 254 216 241 93 115 356 243 287 290 313 213 200
303 303 304 302 305 298 298 293 307 308 297 287 258 287 297 267 261 245 233 227 226 196 193 202 232 237 202 232 227 239 238 177 250 300 243 263 122 117 65 295 265 262 228 178
301 298 303 302 304 293 296 296 300 284 261 263 273 250 270 271 233 238 241 251 247 242 208 226 217 235 198 233 290 234 257 229 241 245 168 123 147 135 339 326 277 231 207 178
298 300 300 297 297 288 296 291 287 276 236 265 277 290 274 264 268 265 259 255 250 222 213 211 229 227 234 232 269 258 224 236 244 294 126 201 142 274 314 293 237 195 178 162
295 297 297 295 273 291 304 290 43 64 232 278 290 280 290 304 311 293 263 243 235 219 208 191 218 226 240 261 259 271 221 182 115 140 158 225 274 286 305 199 167 175 171 164
291 290 290 301 240 278 265 265 297 324 187 257 301 289 303 333 338 12 15 36 194 198 206 236 357 117 325 261 254 21 190 175 167 169 224 203 186 188 144 139 145 156 162 163
287 284 281 233 210 247 274 273 289 240 193 209 268 277 308 4 359 32 22 37 58 43 35 64 18 300 352 255 252 259 202 202 220 239 240 234 184 161 158 157 152 154 154 156
288 227 159 160 190 326 284 308 310 230 209 195 173 296 323 352 7 18 39 47 64 10 44 79 307 172 230 248 287 278 223 212 200 197 200 173 176 175 171 168 164 166 163 162
181 158 124 104 96 249 309 10 46 60 33 49 256 289 307 350 350 53 346 24 42 265 60 327 245 265 272 286 278 253 231 231 228 197 210 207 203 197 191 182 175 177 181 181
150 125 102 138 165 68 22 46 40 349 9 10 316 297 317 6 316 359 24 33 12 282 87 292 257 270 274 332 337 289 252 255 230 228 239 237 215 209 200 193 191 192 197 201
151 130 115 111 87 51 61 11 315 1 327 325 308 342 291 328 359 299 22 13 271 313 110 261 255 266 339 344 329 297 297 266 220 217 228 224 208 198 196 201 202 206 209 212
113 80 78 54 8 48 55 340 317 301 204 235 264 301 340 26 38 74 285 259 233 311 238 257 254 343 9 2 355 334 299 229 214 222 229 220 211 202 202 206 208 214 215 219
73 68 40 66 327 254 200 211 233 217 239 227 202 91 353 357 58 11 264 48 288 257 258 233 49 358 3 5 3 358 335 258 237 234 233 222 218 209 207 209 214 219 222 224
79 80 44 218 261 256 288 240 249 261 230 164 116 91 354 21 86 20 340 274 256 235 279 56 335 344 341 343 346 348 340 303 258 245 239 230 220 214 215 217 217 218 221 225
66 85 89 222 319 281 239 248 258 218 186 167 62 90 36 278 53 184 216 178 237 182 226 273 317 328 334 334 332 329 325 318 285 251 237 229 222 217 218 221 220 220 221 226
67 69 7 208 283 283 281 264 243 182 186 263 123 107 240 102 319 251 203 218 280 352 311 334 330 324 323 322 318 316 311 305 297 265 238 227 218 217 219 223 222 221 222 228
Height
1532 1529 1524 1520 1514 1507 1502 1495 1492 1481 1479 1478 1480 1478 1482 1481 1476 1475 1473 1469 1465 1462 1464 1461 1457 1450 1454 1459 1457 1454 1459 1461 1451 1446 1455 1457 1456 1453 1452 1440 1436 1432 1425 1419
1530 1526 1522 1518 1513 1508 1504 1499 1493 1485 1481 1480 1485 1485 1482 1480 1477 1476 1472 1470 1469 1468 1466 1465 1459 1456 1460 1460 1459 1458 1459 1457 1451 1441 1453 1457 1455 1457 1454 1453 1451 1438 1435 1422
1527 1524 1520 1516 1513 1508 1505 1501 1495 1489 1487 1490 1492 1490 1482 1478 1478 1476 1477 1474 1471 1469 1466 1465 1463 1462 1461 1461 1459 1459 1459 1456 1452 1447 1440 1443 1448 1445 1446 1447 1447 1430 1425 1420
1520 1517 1514 1511 1508 1504 1504 1500 1495 1494 1489 1487 1491 1491 1486 1482 1478 1477 1476 1472 1471 1473 1473 1471 1465 1463 1462 1460 1458 1458 1457 1453 1447 1447 1445 1446 1446 1442 1440 1441 1438 1439 1426 1425
1516 1513 1510 1507 1504 1499 1496 1496 1493 1491 1487 1488 1488 1485 1480 1479 1476 1478 1473 1474 1470 1473 1473 1468 1468 1466 1465 1460 1459 1457 1457 1449 1449 1446 1441 1440 1441 1434 1434 1433 1431 1430 1428 1425
1510 1506 1505 1502 1499 1496 1489 1486 1484 1483 1480 1482 1482 1476 1474 1473 1474 1473 1471 1470 1470 1468 1465 1464 1462 1461 1458 1456 1456 1457 1454 1449 1450 1441 1438 1440 1436 1426 1425 1426 1426 1425 1426 1425
1501 1499 1496 1494 1493 1491 1485 1481 1480 1477 1468 1473 1471 1469 1470 1469 1469 1469 1468 1467 1464 1463 1461 1460 1456 1452 1449 1450 1450 1454 1451 1450 1448 1441 1441 1438 1418 1423 1423 1423 1421 1422 1423 1427
1498 1492 1488 1486 1484 1483 1481 1476 1473 1472 1461 1462 1463 1464 1465 1465 1464 1463 1462 1460 1460 1460 1460 1455 1450 1439 1441 1442 1444 1446 1449 1449 1445 1441 1433 1424 1417 1422 1422 1421 1416 1418 1418 1425
1488 1487 1482 1478 1477 1474 1471 1470 1467 1462 1455 1453 1456 1458 1461 1460 1457 1458 1457 1455 1456 1457 1455 1451 1449 1441 1439 1434 1439 1444 1446 1448 1447 1448 1437 1431 1413 1422 1423 1423 1415 1421 1422 1424
1482 1480 1476 1473 1471 1468 1465 1461 1462 1459 1453 1450 1453 1453 1454 1456 1456 1454 1453 1452 1453 1453 1450 1447 1445 1441 1444 1436 1436 1439 1440 1442 1440 1434 1433 1421 1423 1424 1425 1423 1425 1426 1427 1427
1476 1472 1469 1466 1464 1461 1459 1455 1454 1452 1448 1446 1446 1446 1449 1450 1451 1449 1449 1450 1449 1451 1448 1447 1441 1443 1440 1441 1437 1435 1435 1436 1434 1441 1438 1430 1425 1426 1424 1427 1426 1427 1428 1428
1468 1465 1462 1459 1457 1455 1453 1449 1447 1446 1444 1443 1442 1440 1440 1441 1443 1444 1443 1444 1444 1445 1445 1446 1444 1442 1444 1437 1434 1435 1435 1429 1424 1427 1418 1422 1424 1425 1426 1427 1427 1427 1427 1426
1461 1458 1455 1452 1450 1449 1448 1445 1443 1443 1441 1437 1436 1434 1435 1435 1435 1438 1440 1440 1439 1439 1440 1441 1439 1438 1437 1433 1433 1430 1428 1428 1428 1427 1417 1422 1424 1425 1426 1426 1425 1425 1425 1424
1453 1450 1448 1446 1444 1443 1443 1441 1440 1440 1439 1437 1433 1431 1431 1431 1432 1433 1435 1436 1435 1436 1436 1437 1435 1434 1433 1427 1426 1427 1423 1427 1421 1418 1421 1423 1425 1425 1425 1424 1424 1424 1424 1424
1446 1444 1442 1440 1439 1439 1439 1437 1436 1436 1439 1435 1431 1429 1429 1429 1429 1430 1430 1431 1432 1432 1433 1432 1430 1430 1431 1427 1427 1419 1419 1417 1416 1412 1420 1421 1423 1423 1423 1423 1422 1422 1423 1424
1439 1437 1436 1435 1434 1435 1435 1434 1434 1432 1434 1434 1431 1429 1427 1428 1427 1427 1427 1427 1428 1429 1428 1428 1428 1428 1430 1425 1420 1417 1418 1418 1418 1419 1420 1421 1421 1421 1421 1421 1421 1421 1422 1423
1432 1431 1431 1430 1431 1433 1434 1435 1434 1432 1433 1433 1431 1428 1428 1427 1427 1426 1426 1426 1426 1427 1427 1428 1428 1428 1429 1427 1421 1418 1418 1419 1419 1419 1420 1420 1420 1421 1421 1421 1421 1422 1423 1424
1426 1426 1427 1427 1429 1430 1431 1431 1431 1431 1432 1432 1432 1429 1429 1428 1427 1427 1426 1427 1427 1428 1428 1429 1429 1430 1430 1424 1417 1418 1418 1419 1419 1418 1419 1419 1419 1420 1420 1421 1422 1423 1424 1425
1421 1423 1425 1427 1429 1430 1430 1431 1430 1430 1434 1432 1433 1430 1427 1429 1428 1427 1428 1428 1427 1430 1429 1430 1432 1428 1424 1417 1417 1416 1416 1417 1417 1417 1418 1418 1419 1420 1420 1421 1422 1424 1425 1426
1418 1422 1426 1428 1430 1430 1431 1431 1431 1431 1431 1432 1432 1432 1430 1431 1429 1429 1430 1429 1430 1427 1432 1432 1430 1422 1417 1416 1415 1415 1415 1415 1416 1416 1417 1417 1418 1419 1420 1421 1423 1424 1426 1427
1421 1423 1426 1429 1430 1432 1431 1432 1432 1434 1433 1433 1433 1433 1432 1432 1431 1430 1432 1430 1432 1427 1431 1430 1426 1421 1416 1415 1414 1413 1413 1413 1413 1414 1415 1415 1416 1417 1419 1420 1422 1423 1425 1426
1423 1424 1427 1430 1432 1432 1434 1438 1437 1436 1433 1434 1433 1434 1433 1432 1432 1432 1433 1431 1433 1426 1433 1430 1422 1417 1417 1415 1413 1412 1412 1411 1411 1412 1413 1414 1415 1416 1417 1419 1421 1422 1424 1424
1425 1426 1428 1431 1436 1436 1434 1436 1434 1435 1434 1434 1433 1433 1433 1433 1433 1433 1433 1431 1429 1433 1430 1422 1418 1418 1417 1415 1413 1411 1410 1410 1411 1412 1412 1413 1414 1414 1416 1418 1419 1421 1422 1422
1426 1428 1435 1437 1438 1436 1434 1434 1434 1434 1433 1433 1433 1433 1434 1433 1433 1434 1431 1433 1434 1428 1424 1416 1419 1419 1417 1416 1414 1411 1410 1410 1410 1410 1411 1411 1412 1413 1415 1416 1417 1418 1419 1420
1429 1431 1436 1437 1434 1433 1433 1433 1434 1433 1433 1433 1433 1434 1435 1434 1434 1436 1435 1432 1426 1423 1416 1418 1419 1418 1417 1415 1413 1411 1410 1409 1408 1408 1409 1409 1410 1411 1413 1414 1415 1416 1417 1418
1431 1432 1433 1434 1435 1434 1433 1433 1433 1433 1433 1433 1433 1435 1435 1436 1437 1435 1431 1429 1420 1415 1418 1418 1417 1417 1415 1414 1412 1410 1408 1406 1405 1404 1405 1406 1407 1409 1410 1411 1413 1414 1415 1415
1432 1433 1433 1434 1434 1433 1432 1432 1432 1432 1433 1433 1434 1436 1432 1440 1437 1433 1429 1423 1418 1418 1418 1417 1416 1415 1413 1411 1409 1407 1404 1403 1401 1400 1401 1402 1404 1405 1407 1408 1410 1411 1412 1413